Location: Kresge Environmental Education Center
(43.1138°N, 83.2433°W)
Time: 23:31:18
(UTC-04:00)

Daily predictions for brighter satellites

Satellite Brightness Start Highest point End
(mag) Time Altitude Azimuth Time Altitude Azimuth Time Altitude Azimuth
SL-8 R/B 4.4 21:18:18 10° W 21:23:04 58° NNW 21:27:50 10° ENE
FENGYUN 3A 4.1 21:18:08 10° S 21:23:30 69° WSW 21:28:53 10° NNW
Cosmos 2074 Rocket 4.2 21:20:51 10° S 21:27:08 85° W 21:33:26 10° N
SL-08 ROCKET BODY 4.4 21:21:23 10° S 21:27:23 85° E 21:33:19 10° N
Cosmos 1844 3.8 21:21:42 10° SSW 21:27:23 66° ESE 21:33:09 10° NNE
ALOS 3.1 21:24:01 10° S 21:28:36 54° W 21:33:12 10° NNW
Okean 2 Rocket 4.2 21:29:27 10° SE 21:33:03 25° E 21:36:39 10° NE
NOSS 5 (C) 4.2 21:30:44 10° SSW 21:34:07 66° SE 21:37:12 10° NE
SJ-11-01 4.3 21:30:51 10° SSE 21:35:35 73° ENE 21:40:20 10° N
Cosmos 1610 Rocket 4.5 21:31:13 10° S 21:37:23 81° E 21:43:39 10° N
Envisat 3.3 21:33:12 10° SE 21:38:06 51° ENE 21:43:02 10° N
USA 186 3.3 21:35:42 10° SSW 21:38:41 37° W 21:41:49 10° NNW
Cosmos 2082 Rocket 3.3 21:34:56 10° N 21:39:56 30° NE 21:44:52 10° ESE
Cosmos 1782 Rocket 4.2 21:36:42 10° SSE 21:40:47 37° E 21:44:55 10° NNE
Resurs 01 Rocket 4.5 21:39:15 10° SW 21:41:46 15° W 21:44:17 10° NW
Nadezhda 3 Rocket 4.1 21:37:15 10° N 21:43:37 68° E 21:49:57 10° SSE
Intercosmos 25 4.4 21:43:06 10° SE 21:45:37 19° E 21:47:58 10° NE
Sich 1 Rocket 3.7 21:41:41 10° S 21:46:16 89° W 21:50:52 10° N
Cosmos 2084 3.2 21:43:31 10° SW 21:47:22 89° NW 21:51:14 10° NE
Cosmos 1420 Rocket 4.3 21:44:54 10° S 21:49:50 44° ESE 21:54:47 10° NNE
ERS-1 Rocket 3.1 21:44:54 10° SSE 21:49:57 85° WSW 21:55:01 10° NNW
APEX 4.2 21:46:48 10° S 21:50:26 35° ESE 21:55:02 10° NE
COSMOS 2487 2.5 21:47:31 10° NNW 21:51:08 76° ENE 21:54:41 10° SSE
DNEPR-1 R/B 4.1 21:46:01 10° NNW 21:51:30 63° NE 21:55:33 13° SE
Cosmos 1975 Rocket 3.3 21:50:12 10° N 21:54:26 50° ENE 21:58:29 11° SSE
Cosmos 407 Rocket 4.4 21:49:50 10° NNW 21:54:57 51° WSW 22:00:04 10° S
Cosmos 1140 Rocket 3.6 21:50:13 10° NNW 21:55:20 64° ENE 22:00:07 12° SSE
Cosmos 2297 4.2 21:53:34 10° S 21:58:49 40° ESE 22:04:07 10° NE
EO 1 Delta rocket 4.2 21:56:11 10° NNE 22:02:13 72° E 22:07:07 10° S
Cosmos 1378 Rocket 3.6 21:59:27 10° N 22:03:47 81° W 22:08:06 10° S
Terra 3.9 22:01:35 10° E 22:03:57 14° ENE 22:06:20 10° NNE
Cosmos 1908 Rocket 3.9 22:00:52 10° SSW 22:05:16 71° W 22:09:44 10° N
CZ-4B R/B 4.3 22:02:04 10° NE 22:06:16 28° E 22:09:18 15° SE
ISS -2.8 22:03:08 10° WSW 22:06:22 61° NNW 22:09:36 10° NE
Cosmos 1606 3.5 22:03:14 10° NNW 22:07:06 54° W 22:10:55 10° S
MetOp-B 4.3 22:04:33 13° SSE 22:09:16 59° ENE 22:14:32 10° N
Cosmos 1452 Rocket 4.0 22:04:54 10° SSW 22:10:08 66° WNW 22:15:25 10° NNE
Cosmos 1862 3.7 22:08:11 10° SSW 22:12:14 66° W 22:16:19 10° N
Cosmos 1238 Rocket 2.8 22:09:36 10° NNW 22:12:57 72° W 22:16:55 10° S
Nimbus 7 Rocket 4.4 22:07:17 10° NNE 22:13:15 76° ESE 22:19:15 10° S
BREEZE-M DEB (TANK) 3.4 22:11:48 10° WNW 22:13:35 25° N 22:15:48 10° NE
Cosmos 2341 Rocket 4.0 22:07:47 10° S 22:14:06 87° E 22:20:24 10° N
H-2A R/B 3.6 22:11:12 14° ESE 22:14:23 23° ENE 22:18:25 10° NNE
Cosmos 1184 Rocket 3.1 22:14:44 10° SSW 22:18:03 70° W 22:21:25 10° N
SPOT 5 3.1 22:14:02 12° SSE 22:18:59 86° ENE 22:24:23 10° NNW
deb Chang Zheng 4 3.8 22:15:01 10° N 22:19:26 77° WNW 22:23:52 10° SSW
SL-8 Rocket 4.1 22:14:43 10° S 22:20:50 59° E 22:26:57 10° NNE
Abrixas 3.4 22:22:40 10° SSW 22:24:56 28° SSE 22:24:56 28° SSE
USA 245 3.5 22:25:48 26° SE 22:27:37 54° ENE 22:31:52 10° N
Gbstr 26 Del rocket 4.2 22:22:56 10° NW 22:28:06 42° NNE 22:31:42 14° E
Cosmos 1242 Rocket 2.7 22:25:09 10° NNW 22:28:50 75° W 22:31:23 19° S
Timation 2 Rocket 4.0 22:23:34 10° NNW 22:29:34 77° WSW 22:34:07 18° SSE
Elektron 3 4.3 22:26:52 10° NW 22:29:45 62° SW 22:31:53 24° SSE
SPOT 1/Viking Rocket 3.7 22:26:12 20° SSE 22:29:45 62° ENE 22:34:55 10° N
Lacrosse 5 3.4 22:31:52 18° E 22:31:52 18° E 22:34:10 10° ENE
ARGOS 3.3 22:27:48 21° SE 22:31:18 57° ENE 22:36:33 10° N
H-2A R/B 3.0 22:29:49 10° S 22:33:54 44° W 22:37:57 10° NNW
YAOGAN 6 2.4 22:33:23 25° S 22:35:19 86° WSW 22:38:52 10° NNW
Cosmos 1408 4.3 22:34:57 10° SW 22:38:17 33° WNW 22:41:39 10° N
Cosmos 2151 Rocket 3.7 22:36:41 22° SSE 22:39:24 57° E 22:43:52 10° NNE
CZ-4C R/B 4.4 22:38:45 26° ESE 22:40:04 32° ENE 22:43:48 10° N
Cosmos 1850 Rocket 4.2 22:35:48 10° NNW 22:41:06 69° WSW 22:44:49 20° S
USA 229 DEB 3.8 22:38:38 10° NW 22:45:46 85° NE 22:50:15 26° SE
USA 229 3.8 22:38:44 10° NW 22:45:53 84° NE 22:50:21 26° SE
Cosmos 1300 Rocket 4.5 22:49:12 29° ESE 22:49:53 30° E 22:53:48 10° NNE
Cosmos 864 Rocket 4.4 22:45:50 18° S 22:50:24 68° E 22:56:32 10° NNE
NOSS 8 (E) 4.4 22:48:12 19° SSW 22:50:32 63° ESE 22:54:13 10° NE
Meteor 1-20 Rocket 4.4 22:50:14 27° SSE 22:52:57 49° E 22:58:15 10° NNE
Timation 1 Rocket 4.4 22:48:54 14° S 22:54:02 56° ESE 22:59:54 10° NE
Okean 1 Rocket 3.9 22:56:16 30° ESE 22:56:46 31° E 23:00:43 10° NNE
Cosmos 1833 Rocket 2.6 22:52:50 10° NNW 22:58:29 89° W 23:01:16 32° SSE
Cosmos 2366 rocket 4.0 22:57:17 16° S 23:02:27 88° E 23:08:50 10° N
Cosmos 2278 Rocket 3.9 23:00:20 10° WSW 23:05:27 34° NW 23:10:36 10° N
Cosmos 1331 Rocket 4.0 23:05:38 33° S 23:07:47 59° ESE 23:12:51 10° NNE
CZ-4 R/B 3.6 23:04:24 10° NNE 23:09:06 85° ESE 23:11:24 30° S
Meteor 1-25 Rocket 4.2 23:06:56 23° S 23:10:40 83° E 23:16:32 10° NNE
Okean 1-7 Rocket 4.0 23:08:09 10° N 23:12:28 45° ENE 23:13:10 41° ESE
Okean 1 3.3 23:09:58 10° N 23:14:03 65° E 23:14:37 57° SE
Cosmos 1110 Rocket 3.9 23:13:24 26° SSW 23:16:24 81° ESE 23:21:38 10° NNE
DMSP B5D2-2 4.2 23:14:11 10° NNE 23:19:19 55° E 23:20:37 44° SSE
NOSS 8 (H) 4.4 23:19:49 58° SW 23:20:28 87° NW 23:24:19 10° NE
SL-08 RB Rocket 4.2 23:21:37 33° SSW 23:23:25 54° W 23:28:00 10° NNW
Cosmos 2082 Rocket 3.0 23:18:47 10° NW 23:24:10 45° WSW 23:26:48 27° SSW
ATLAS 2AS CENTAUR R/B 4.4 23:17:19 10° NNW 23:24:21 30° NNE 23:30:50 11° E
Landsat 7 3.8 23:23:52 44° S 23:25:22 75° WSW 23:30:09 10° NNW
Cosmos 1812 2.7 23:22:56 10° NNW 23:26:49 72° W 23:27:16 63° SW
OAO 3 Rocket 4.5 23:22:59 10° WSW 23:25:52 26° SSW 23:25:52 26° SSW
NOSS 3-1 (C) 4.1 23:25:39 10° NNW 23:33:10 72° NE 23:37:00 35° SE
CARTOSAT-1 3.5 23:32:46 64° S 23:33:25 84° WSW 23:37:46 10° NNW
Genesis I 4.0 23:37:08 40° ENE 23:37:08 40° ENE 23:39:54 10° NE
Meteor 2-4 Rocket 4.4 23:31:06 10° N 23:36:11 38° ENE 23:37:12 35° E
Terra 1.8 23:40:06 55° S 23:41:05 75° WSW 23:45:51 10° NNW
BREEZE-M TANK 3.0 23:31:39 10° WNW 23:41:08 78° N 23:42:07 49° E
USA 234 3.3 23:35:42 10° ENE 23:42:03 50° SE 23:43:56 39° S
ISS -0.6 23:40:44 10° WNW 23:43:16 20° N 23:45:48 10° NE
Cosmos 1486 Rocket 3.9 23:38:11 10° NNW 23:43:34 86° WSW 23:44:40 57° SSE
Cosmos 1354 Rocket 4.3 23:38:58 10° N 23:44:08 52° ENE 23:45:03 46° E
Meteor 1-13 Rocket 4.3 23:41:48 10° N 23:47:47 90° E 23:49:26 51° S
Cosmos 2084 Rocket 4.3 23:47:56 10° NNW 23:51:34 35° NE 23:51:39 35° NE
H-2A R/B 2.6 23:51:51 39° SSW 23:53:26 52° W 23:58:36 10° NNW
Cosmos 1315 Rocket 4.3 23:55:13 27° NE 23:55:13 27° NE 23:57:28 10° NNE
Spot 2 4.0 23:49:39 10° NNE 23:53:38 71° NE 23:53:38 71° NE
